sat.trackr.live / text

‹ back to catalog

STARLINK-37048

NORAD 68155 · 2026-049P

PAYLOAD ACTIVE UNKNOWN

§ Identity

Operator
Country
US
Launch date
2026-03-13
Launch site
AFWTR
Launch vehicle
Mass (kg)
RCS (m²)

Purposes: comms

External: N2YO · Heavens-Above · Gunter

§ Orbital elements

Epoch: 2026-09-20T00:36:01.092960Z

Period
93.91 min
Inclination
97.2848°
Eccentricity
0.0001429
Mean motion
15.33450999 rev/d
Perigee alt
464.5 km
Apogee alt
466.5 km
Semi-major
6,843.7 km
B*
6.3144e-4
RAAN
282.9201°
Arg perigee
105.8881°
Mean anomaly
254.2519°
Rev number
2,942

§ Raw data

STARLINK-370481 68155U 26049P   26263.02501265  .00020369  00000+0  63144-3 0  99962 68155  97.2848 282.9201 0001429 105.8881 254.2519 15.33450999 29429

JSON: /api/v1/satellites/68155 · /tle

For live sub-satellite position, see the globe view (requires WebGL).

§ Visibility from observer

Set your observer location to see the next 7 days of passes ≥ 10°. The values pass through the URL so the page stays shareable.

No JS? Fill the form by hand. The geolocation button needs JavaScript.